Location: Arroyo de Fuente Vieja
(40.4902°N, 4.1175°W)
Time: 01:47:00
(UTC+00:00)

USA 229 DEB - Visible Passes

Search period start: 19 July 2024 00:00
Search period end: 29 July 2024 00:00
Orbit: 892 x 1319 km, 63.4° (Epoch: 30 May)

Date Brightness Start Highest point End Pass type
(mag) Time Alt. Az. Time Alt. Az. Time Alt. Az.
19 Jul 5.0 00:55:02 19° W 00:58:34 32° NW 01:04:32 10° NNE visible
19 Jul 6.2 02:49:39 10° NW 02:52:00 12° NNW 02:54:25 10° N visible
19 Jul 4.3 22:23:30 31° E 22:23:30 31° E 22:28:19 10° NE visible
20 Jul 4.3 00:10:52 32° W 00:13:19 47° NW 00:19:46 10° NNE visible
20 Jul 6.0 02:02:41 10° NW 02:06:10 15° NNW 02:09:49 10° N visible
20 Jul 6.6 03:59:20 10° N 04:00:40 11° N 04:02:01 10° NNE visible
20 Jul 4.9 21:39:12 18° E 21:39:12 18° E 21:42:23 10° ENE visible
20 Jul 3.6 23:26:34 49° WSW 23:28:15 73° NW 23:34:55 10° NNE visible
21 Jul 5.8 01:16:04 10° WNW 01:20:29 19° NNW 01:25:11 10° NNE visible
21 Jul 6.6 03:14:09 10° N 03:14:41 10° N 03:15:11 10° N visible
21 Jul 3.3 22:42:06 56° S 22:43:23 72° ESE 22:49:56 10° NE visible
22 Jul 5.4 00:29:48 10° W 00:34:57 26° NW 00:40:31 10° NNE visible
22 Jul 6.4 02:27:04 10° NNW 02:28:42 11° N 02:30:21 10° N visible
22 Jul 6.4 04:19:52 10° N 04:23:19 14° NNE 04:26:52 10° NE visible
22 Jul 3.8 21:57:25 38° SE 21:58:39 43° ESE 22:04:44 10° NE visible
22 Jul 4.8 23:44:44 14° WSW 23:49:36 37° NW 23:55:48 10° NNE visible
23 Jul 6.2 01:39:58 10° NW 01:42:48 13° NNW 01:45:45 10° N visible
23 Jul 6.6 03:35:16 10° N 03:37:24 11° NNE 03:39:35 10° NNE visible
23 Jul 4.4 21:12:22 22° SE 21:14:06 25° ESE 21:19:12 10° ENE visible
23 Jul 4.0 22:59:39 16° SW 23:04:26 56° NW 23:11:01 10° NNE visible
24 Jul 6.0 00:53:08 10° WNW 00:57:02 16° NNW 01:01:08 10° NNE visible
24 Jul 6.7 02:50:36 10° N 02:51:25 10° N 02:52:14 10° N visible
24 Jul 5.0 20:26:39 10° SE 20:29:40 14° ESE 20:32:47 10° ENE visible
24 Jul 3.4 22:13:48 12° SW 22:19:27 87° NW 22:26:07 10° NE visible
25 Jul 5.8 00:06:39 10° W 00:11:25 21° NNW 00:16:30 10° NNE visible
25 Jul 6.6 02:04:32 10° NNW 02:05:25 10° N 02:06:21 10° N visible
25 Jul 6.5 03:55:47 10° N 03:59:57 16° NNE 04:04:17 10° ENE visible
25 Jul 3.5 21:28:45 10° SSW 21:34:38 58° ESE 21:41:03 10° NE visible
25 Jul 5.3 23:20:34 10° W 23:25:57 30° NW 23:31:49 10° NNE visible
26 Jul 6.4 01:17:20 10° NNW 01:19:29 11° NNW 01:21:41 10° N visible
26 Jul 6.6 03:11:11 10° N 03:14:07 13° NNE 03:17:07 10° NE visible
26 Jul 4.0 20:44:37 10° S 20:49:59 35° ESE 20:55:44 10° NE visible
26 Jul 4.6 22:34:51 10° WSW 22:40:40 44° NW 22:47:04 10° NNE visible
27 Jul 6.3 00:30:20 10° NW 00:33:37 14° NNW 00:37:04 10° N visible
27 Jul 6.7 02:26:35 10° N 02:28:10 11° N 02:29:45 10° NNE visible
27 Jul 6.3 04:16:20 10° NNW 04:22:08 24° NE 04:28:18 10° E visible
27 Jul 4.6 20:01:14 10° SSE 20:05:29 20° ESE 20:09:56 10° ENE visible
27 Jul 3.8 21:49:32 10° SW 21:55:35 67° NW 22:02:14 10° NNE visible
27 Jul 6.1 23:43:38 10° WNW 23:47:55 18° NNW 23:52:27 10° NNE visible
28 Jul 6.8 01:41:41 10° N 01:42:11 10° N 01:42:40 10° N visible
28 Jul 6.5 03:31:43 10° NNW 03:36:32 18° NNE 03:41:36 10° ENE visible
28 Jul 3.4 21:04:38 10° SSW 21:10:40 78° ESE 21:17:16 10° NE visible
28 Jul 5.7 22:57:20 10° W 23:02:21 24° NW 23:07:48 10° NNE visible
